Temp
67 67 66 65 64 65 65 64 63 64 63 63 63 62 62 63 63 62 63 63 62 62 63 62 61 62 64 63 63 64 62 61 61 61 62 61 60 61 62 61 59 60
67 66 66 66 64 65 64 64 63 63 63 63 63 62 63 62 62 63 61 62 63 62 62 61 60 62 62 63 63 62 61 61 61 65 62 61 60 61 61 61 60 60
66 66 66 65 65 64 64 64 64 64 64 64 63 63 63 62 62 61 60 60 60 60 60 61 60 60 61 61 61 61 60 59 59 59 60 60 58 59 57 59 60 60
65 66 65 65 65 65 64 65 64 64 64 63 63 64 64 64 60 59 61 63 60 61 59 60 59 60 61 61 61 59 60 59 59 58 58 59 61 61 61 61 61 61
65 65 64 65 65 65 65 65 64 64 64 63 63 63 63 60 60 61 61 60 59 58 59 59 59 59 59 60 60 59 58 58 58 59 59 58 59 61 61 62 60 59
65 65 66 65 65 65 64 64 64 64 64 63 63 62 61 61 60 60 60 59 59 59 60 59 58 59 60 59 59 58 57 60 58 58 59 58 60 62 65 60 58 58
64 65 65 65 65 65 64 63 63 64 64 64 63 62 62 60 60 60 60 60 59 59 59 58 58 59 59 57 57 57 58 59 58 59 59 59 59 59 60 60 60 58
64 65 65 65 65 64 64 63 63 63 63 63 62 63 62 61 61 61 59 60 60 59 58 58 58 59 57 58 59 58 58 61 60 60 59 57 57 59 59 61 58 59
62 64 64 65 64 62 63 63 62 63 64 63 62 63 62 62 62 61 61 61 60 60 60 58 60 58 57 60 58 57 58 59 60 59 58 59 60 59 60 58 58 57
61 61 64 65 63 62 62 62 62 62 63 63 63 63 62 61 63 63 61 60 61 61 60 60 58 59 60 59 59 57 59 60 58 59 60 60 60 60 60 59 57 57
60 60 60 62 64 63 63 63 63 63 62 63 62 63 60 62 64 62 61 61 61 61 60 60 60 61 61 60 59 57 59 59 58 58 58 59 60 61 62 60 58 57
59 60 61 61 64 64 63 63 64 64 63 62 63 63 59 62 63 61 62 62 62 62 61 61 61 61 61 60 60 58 59 59 58 57 58 59 60 60 60 60 59 57
58 59 59 59 60 61 63 63 64 64 64 63 63 62 60 61 62 61 60 62 62 62 62 62 62 61 60 60 60 59 60 59 59 58 57 59 58 60 60 59 59 59
59 58 59 60 59 60 62 63 63 64 64 62 62 61 62 62 64 61 62 61 63 62 62 63 62 61 61 61 62 60 60 58 59 58 57 58 58 57 59 58 57 57
59 59 59 59 58 59 61 61 59 59 59 58 59 59 63 62 61 61 61 60 60 60 61 62 63 63 63 63 62 61 61 60 58 60 58 57 58 57 57 57 56 55
60 60 59 60 59 59 60 59 59 58 57 56 58 59 58 59 61 60 61 62 61 61 61 62 63 63 63 60 59 63 60 63 60 60 59 57 58 56 56 55 55 55
59 59 59 59 59 59 59 59 59 59 57 58 58 57 58 58 58 60 61 62 61 61 60 61 62 65 56 51 53 56 61 59 60 59 58 58 57 56 56 57 55 55
59 59 59 59 60 59 59 59 58 57 58 59 57 57 56 57 57 57 58 59 60 60 58 58 57 48 47 48 45 44 52 59 60 60 60 58 57 56 56 56 56 56
59 58 58 59 58 59 58 58 57 57 57 58 56 55 55 56 56 57 57 59 59 59 58 58 57 44 46 46 43 42 45 56 60 59 60 57 57 57 57 56 56 55
60 59 58 59 58 58 57 56 57 56 56 54 54 54 54 54 55 56 56 57 58 58 56 57 57 48 45 46 44 42 43 52 58 58 58 57 57 57 56 56 56 55
58 58 57 58 58 57 57 56 56 55 56 54 53 54 53 53 54 55 56 57 57 58 55 56 59 52 47 45 45 42 40 46 56 58 57 56 56 56 56 56 56 55
56 56 56 57 57 57 57 57 55 54 54 53 53 52 52 53 53 54 56 57 57 56 57 54 57 50 47 46 45 43 42 49 53 55 55 55 54 55 56 56 56 56
55 55 55 56 55 55 55 55 54 55 55 53 54 52 53 53 54 55 56 57 56 56 56 54 55 50 44 44 44 43 44 51 52 55 55 54 54 55 56 56 56 56
55 55 54 54 54 54 54 54 54 54 55 55 54 54 54 55 56 55 56 57 57 57 57 56 54 51 44 42 43 43 46 52 53 54 54 52 54 55 54 55 56 56
53 53 53 53 53 53 53 53 53 54 54 54 53 53 55 55 55 55 57 58 58 58 58 57 54 52 45 44 45 44 45 51 53 54 54 53 54 52 53 51 50 50
53 53 53 53 53 53 53 53 53 54 54 54 55 56 54 53 53 56 56 57 57 57 57 56 54 52 50 44 43 43 42 49 54 53 53 52 53 53 51 50 49 46
MSLP
1014.93 1015.17 1015.57 1015.89 1016.17 1016.29 1016.53 1016.69 1016.81 1016.97 1017.25 1017.45 1017.69 1018.01 1018.13 1018.29 1018.29 1018.45 1018.53 1018.65 1018.73 1018.85 1019.01 1019.13 1019.25 1019.37 1019.45 1019.65 1019.77 1019.85 1019.97 1020.01 1020.05 1020.05 1020.09 1020.13 1020.25 1020.21 1020.29 1020.33 1020.45 1020.53
1014.89 1015.05 1015.37 1015.73 1016.05 1016.21 1016.37 1016.49 1016.73 1016.93 1017.33 1017.49 1017.69 1017.89 1018.05 1018.21 1018.37 1018.49 1018.65 1018.77 1018.81 1018.93 1019.05 1019.25 1019.37 1019.41 1019.57 1019.77 1019.89 1020.09 1020.21 1020.21 1020.21 1020.05 1020.09 1020.17 1020.25 1020.29 1020.45 1020.45 1020.57 1020.61
1015.09 1015.21 1015.41 1015.73 1015.97 1016.17 1016.33 1016.53 1016.77 1017.13 1017.45 1017.61 1017.69 1017.81 1018.05 1018.17 1018.41 1018.49 1018.65 1018.81 1018.97 1019.17 1019.29 1019.37 1019.45 1019.57 1019.69 1019.89 1020.05 1020.25 1020.41 1020.45 1020.45 1020.29 1020.25 1020.41 1020.41 1020.53 1020.65 1020.61 1020.61 1020.65
1015.37 1015.37 1015.57 1015.73 1015.89 1016.13 1016.33 1016.65 1017.05 1017.37 1017.57 1017.77 1017.81 1017.85 1017.97 1018.21 1018.45 1018.65 1018.77 1018.85 1019.05 1019.17 1019.29 1019.37 1019.53 1019.65 1019.77 1019.97 1020.13 1020.41 1020.53 1020.61 1020.57 1020.53 1020.57 1020.57 1020.61 1020.61 1020.73 1020.73 1020.81 1020.85
1015.37 1015.53 1015.77 1015.93 1016.01 1016.21 1016.41 1016.81 1017.21 1017.45 1017.65 1017.77 1017.89 1017.93 1018.13 1018.37 1018.57 1018.69 1018.77 1018.93 1019.05 1019.25 1019.41 1019.53 1019.65 1019.77 1019.89 1020.01 1020.17 1020.45 1020.53 1020.65 1020.65 1020.65 1020.77 1020.81 1020.77 1020.77 1020.81 1020.73 1020.89 1021.05
1015.25 1015.53 1015.85 1016.09 1016.21 1016.41 1016.69 1016.97 1017.25 1017.49 1017.69 1017.85 1017.93 1018.05 1018.21 1018.37 1018.57 1018.73 1018.85 1019.01 1019.13 1019.33 1019.41 1019.57 1019.73 1019.89 1019.93 1020.09 1020.25 1020.41 1020.61 1020.69 1020.69 1020.73 1020.81 1020.85 1020.85 1020.81 1020.85 1020.93 1021.05 1021.13
1015.65 1015.89 1016.21 1016.33 1016.53 1016.65 1016.89 1017.09 1017.33 1017.53 1017.65 1017.77 1017.93 1018.13 1018.25 1018.45 1018.65 1018.77 1018.93 1019.05 1019.21 1019.33 1019.45 1019.65 1019.81 1019.97 1020.05 1020.21 1020.37 1020.53 1020.61 1020.65 1020.73 1020.77 1020.81 1020.85 1020.89 1021.01 1020.97 1020.97 1021.05 1021.13
1016.13 1016.17 1016.41 1016.61 1016.81 1017.01 1017.13 1017.29 1017.45 1017.57 1017.65 1017.77 1017.97 1018.09 1018.21 1018.49 1018.61 1018.77 1018.93 1019.05 1019.21 1019.41 1019.57 1019.73 1019.85 1019.93 1020.17 1020.33 1020.49 1020.61 1020.73 1020.73 1020.81 1020.81 1020.85 1021.01 1021.01 1021.09 1021.09 1021.17 1021.21 1021.29
1017.73 1016.65 1016.65 1016.81 1017.09 1017.25 1017.37 1017.45 1017.53 1017.65 1017.69 1017.89 1018.05 1018.13 1018.25 1018.41 1018.61 1018.73 1018.89 1019.05 1019.29 1019.41 1019.57 1019.73 1019.81 1020.05 1020.21 1020.29 1020.49 1020.69 1020.85 1020.89 1020.85 1020.85 1020.97 1021.05 1021.09 1021.21 1021.25 1021.29 1021.37 1021.45
1018.65 1018.09 1017.13 1017.01 1017.29 1017.37 1017.49 1017.57 1017.57 1017.65 1017.73 1017.89 1018.01 1018.05 1018.29 1018.41 1018.45 1018.65 1018.85 1019.09 1019.29 1019.41 1019.57 1019.69 1019.93 1020.13 1020.17 1020.21 1020.41 1020.65 1020.81 1020.89 1020.85 1020.85 1020.93 1020.93 1021.05 1021.21 1021.29 1021.33 1021.45 1021.53
1018.41 1018.49 1018.41 1017.89 1017.45 1017.49 1017.61 1017.61 1017.61 1017.65 1017.69 1017.81 1017.93 1018.01 1018.13 1018.33 1018.41 1018.53 1018.77 1019.05 1019.25 1019.41 1019.57 1019.69 1019.85 1020.01 1020.13 1020.25 1020.37 1020.57 1020.69 1020.73 1020.77 1020.81 1020.89 1020.97 1021.01 1021.09 1021.21 1021.29 1021.41 1021.49
1018.09 1017.89 1017.77 1017.89 1017.77 1017.77 1017.77 1017.73 1017.65 1017.65 1017.73 1017.85 1017.89 1018.01 1018.17 1018.29 1018.37 1018.49 1018.65 1018.89 1019.05 1019.25 1019.41 1019.53 1019.69 1019.93 1020.09 1020.25 1020.37 1020.53 1020.65 1020.73 1020.73 1020.81 1020.89 1021.01 1021.09 1021.13 1021.21 1021.29 1021.41 1021.49
1018.81 1018.45 1017.89 1018.05 1017.97 1017.93 1017.77 1017.77 1017.77 1017.81 1017.85 1018.01 1017.97 1018.05 1018.17 1018.37 1018.37 1018.45 1018.53 1018.69 1018.89 1019.09 1019.29 1019.45 1019.65 1019.89 1020.09 1020.21 1020.29 1020.49 1020.57 1020.73 1020.77 1020.77 1020.85 1020.93 1021.05 1021.13 1021.17 1021.25 1021.37 1021.49
1018.13 1018.65 1018.33 1018.17 1018.25 1018.37 1018.21 1017.93 1018.01 1017.93 1017.97 1018.05 1018.01 1018.05 1018.13 1018.21 1018.25 1018.37 1018.41 1018.53 1018.61 1018.93 1019.13 1019.25 1019.49 1019.81 1020.01 1020.13 1020.25 1020.41 1020.53 1020.73 1020.73 1020.73 1020.85 1020.89 1020.93 1021.05 1021.09 1021.17 1021.33 1021.41
1018.49 1019.17 1018.45 1018.13 1018.41 1018.61 1018.41 1018.33 1018.29 1018.21 1018.29 1018.21 1018.25 1018.29 1018.17 1018.05 1018.17 1018.25 1018.37 1018.53 1018.57 1018.73 1018.97 1019.13 1019.33 1019.53 1019.81 1020.01 1020.21 1020.37 1020.45 1020.61 1020.73 1020.77 1020.81 1020.93 1020.93 1021.17 1021.45 1021.57 1021.57 1021.61
1018.53 1018.57 1018.41 1018.41 1018.53 1018.69 1018.77 1018.61 1018.57 1018.45 1018.29 1018.33 1018.37 1018.33 1018.29 1018.33 1018.29 1018.25 1018.33 1018.45 1018.61 1018.73 1018.85 1019.05 1019.17 1019.29 1019.37 1019.61 1019.89 1020.13 1020.37 1020.45 1020.61 1020.69 1020.73 1020.81 1021.09 1021.49 1021.49 1021.53 1021.49 1021.65
1018.33 1018.61 1018.85 1018.89 1018.77 1018.61 1018.49 1018.61 1018.89 1018.81 1018.45 1018.37 1018.49 1018.49 1018.49 1018.45 1018.53 1018.49 1018.41 1018.37 1018.57 1018.73 1018.89 1019.05 1019.09 1019.05 1019.21 1019.45 1019.69 1019.81 1020.01 1020.21 1020.41 1020.57 1020.57 1020.69 1021.17 1021.17 1021.33 1021.17 1021.25 1021.61
1018.09 1018.17 1018.81 1018.97 1018.93 1018.73 1018.85 1019.13 1019.61 1019.85 1018.85 1018.45 1018.49 1018.69 1018.73 1018.65 1018.65 1018.69 1018.65 1018.57 1018.45 1018.61 1018.89 1019.09 1019.17 1019.41 1019.41 1019.57 1019.73 1019.85 1019.85 1019.93 1020.09 1020.25 1020.41 1020.73 1021.05 1021.01 1020.89 1020.89 1020.93 1021.05
1018.73 1019.01 1019.41 1019.37 1019.45 1019.61 1019.97 1020.05 1019.93 1019.21 1018.57 1018.61 1018.73 1018.89 1018.89 1018.89 1018.93 1018.85 1018.85 1018.73 1018.73 1018.73 1018.85 1019.05 1019.13 1019.41 1019.37 1019.49 1019.61 1019.73 1019.85 1019.85 1019.93 1019.97 1020.13 1020.61 1020.77 1020.73 1020.69 1020.73 1020.73 1020.85
1018.57 1018.77 1018.97 1019.09 1019.13 1019.13 1018.93 1018.69 1018.53 1018.61 1018.69 1018.85 1018.85 1018.89 1018.89 1018.85 1018.85 1018.97 1019.01 1019.01 1018.93 1018.93 1019.01 1019.01 1019.01 1019.25 1019.17 1019.21 1019.33 1019.45 1019.57 1019.61 1019.73 1019.89 1020.13 1020.41 1020.45 1020.41 1020.45 1020.33 1020.29 1020.57
1018.57 1018.65 1018.77 1018.85 1018.89 1018.73 1018.69 1018.69 1018.49 1018.37 1018.45 1018.45 1018.61 1018.81 1018.85 1018.97 1019.05 1019.05 1019.01 1019.01 1019.05 1019.01 1019.13 1019.09 1018.97 1018.93 1019.13 1019.25 1019.29 1019.45 1019.61 1019.69 1019.69 1019.77 1020.01 1020.33 1020.45 1020.41 1020.49 1020.65 1020.41 1020.45
1018.85 1018.81 1018.77 1018.77 1018.81 1018.81 1018.85 1018.97 1019.05 1019.05 1018.73 1018.65 1018.69 1018.69 1018.93 1019.17 1019.17 1019.17 1019.09 1018.97 1018.89 1018.89 1019.01 1019.17 1019.01 1018.89 1018.89 1018.97 1019.09 1019.37 1019.61 1019.65 1019.73 1019.77 1019.85 1020.09 1020.29 1020.25 1020.29 1020.33 1020.25 1020.33
1019.25 1019.21 1019.17 1019.01 1019.01 1018.93 1018.89 1019.05 1019.17 1019.05 1019.05 1018.93 1018.73 1018.77 1018.73 1018.69 1018.85 1019.21 1019.17 1019.05 1018.93 1018.81 1018.81 1018.93 1018.93 1018.85 1018.81 1018.69 1018.81 1019.29 1019.49 1019.53 1019.61 1019.65 1019.73 1019.77 1020.01 1020.21 1020.21 1020.21 1020.21 1020.21
1019.57 1019.53 1019.49 1019.45 1019.33 1019.29 1019.25 1019.09 1019.05 1019.21 1019.33 1019.17 1019.09 1019.01 1018.85 1018.57 1018.37 1018.33 1018.17 1018.33 1018.53 1018.53 1018.49 1018.61 1018.73 1018.65 1018.57 1018.53 1018.61 1019.01 1019.25 1019.33 1019.41 1019.45 1019.49 1019.49 1019.65 1019.81 1019.93 1020.05 1020.01 1019.89
1020.33 1020.21 1020.13 1020.09 1019.93 1019.73 1019.57 1019.41 1019.33 1019.21 1019.13 1019.29 1019.45 1019.45 1019.33 1019.21 1019.13 1019.01 1018.73 1018.53 1018.37 1018.29 1018.29 1018.45 1018.53 1018.45 1018.45 1018.45 1018.37 1018.65 1019.09 1019.17 1019.17 1019.21 1019.25 1019.29 1019.37 1019.61 1019.81 1019.81 1019.73 1019.81
1020.85 1020.73 1020.65 1020.53 1020.37 1020.17 1019.93 1019.77 1019.61 1019.37 1019.29 1019.21 1019.01 1018.97 1018.97 1018.97 1018.97 1019.01 1018.93 1018.57 1018.29 1018.21 1018.17 1018.21 1018.29 1018.33 1018.33 1018.33 1018.33 1018.53 1018.97 1019.09 1019.01 1018.85 1018.93 1019.01 1019.21 1019.49 1019.49 1019.49 1019.97 1020.01
Wind_Speed
8 8 8 7 7 6 6 6 5 6 6 6 7 6 7 6 6 5 5 5 5 5 5 4 4 5 6 6 4 4 3 3 3 3 4 4 3 4 3 3 3 3
8 9 7 7 6 5 5 6 5 6 6 7 7 7 6 6 5 5 4 5 5 5 2 3 4 5 5 5 5 5 3 3 4 2 5 5 4 6 6 6 5 4
6 7 8 7 7 6 6 5 7 7 7 7 7 7 6 6 5 5 4 4 4 3 4 4 5 5 5 5 5 5 4 4 3 3 4 4 4 5 4 5 6 6
4 6 6 6 7 7 7 8 8 7 7 7 7 6 7 5 4 4 4 5 5 5 4 4 4 4 5 6 6 5 4 4 3 3 4 4 5 6 6 6 5 5
5 5 4 5 6 7 7 8 8 8 7 7 6 6 6 5 5 5 5 5 4 4 3 4 4 4 5 5 5 5 4 4 4 4 5 4 3 5 5 6 5 5
5 4 6 6 7 7 7 7 7 7 8 7 7 6 6 5 5 5 5 5 4 4 4 4 4 4 5 5 5 4 4 5 4 4 4 4 4 4 5 5 5 5
4 5 6 6 7 7 6 6 6 7 7 7 6 6 6 5 5 5 5 5 4 4 4 4 4 5 5 4 4 4 4 5 4 5 5 4 4 5 4 4 4 4
2 6 6 6 7 5 5 5 6 7 6 6 7 7 6 6 6 5 5 5 5 5 4 4 4 5 4 4 4 5 5 4 4 5 5 4 4 5 4 4 4 5
9 3 6 7 6 4 5 5 5 6 6 6 6 6 5 6 6 6 6 6 5 5 5 4 4 3 4 5 5 4 4 4 5 5 5 6 6 5 4 4 5 5
7 7 4 7 5 4 4 4 5 5 5 6 6 6 5 5 7 6 5 6 6 6 5 5 4 4 5 4 4 4 5 6 5 5 6 6 6 6 6 5 5 5
7 5 7 3 4 3 4 4 5 5 4 5 6 5 4 6 6 5 6 6 7 6 5 5 6 6 5 4 3 4 5 5 4 5 5 5 6 6 6 6 5 5
5 7 6 1 1 1 3 4 5 5 4 4 5 5 4 6 6 4 5 6 6 6 6 6 6 6 6 5 5 4 5 5 4 4 4 5 5 5 5 5 5 4
0 3 0 2 1 2 1 3 5 5 4 4 4 5 4 5 5 5 4 6 6 6 7 7 6 5 6 5 5 5 6 5 5 4 4 5 5 6 6 5 5 5
1 6 2 3 3 5 4 2 2 5 5 2 4 5 5 5 7 5 5 5 6 6 6 7 7 6 6 6 5 5 5 5 6 5 4 4 5 5 5 5 4 4
4 3 2 0 2 3 6 5 3 3 3 4 4 2 1 4 5 4 4 4 5 5 6 6 7 7 6 6 6 6 6 5 5 5 4 4 4 4 6 6 4 3
5 4 1 1 2 4 6 5 5 2 2 3 3 2 3 3 1 3 4 5 4 3 4 5 6 5 8 12 9 7 6 6 5 5 5 5 6 7 5 3 3 4
6 5 3 2 2 4 3 1 3 6 1 1 2 2 3 3 4 1 3 5 4 2 2 4 4 5 8 10 9 10 7 6 7 6 5 5 7 7 6 5 3 4
3 6 2 0 2 2 1 1 0 5 1 1 2 3 4 4 3 2 2 2 4 4 3 4 3 5 11 10 8 5 4 6 6 7 6 7 8 7 7 6 5 4
8 8 7 4 4 7 7 9 9 3 1 1 2 3 3 4 4 3 3 1 1 4 4 4 4 7 10 10 10 8 6 5 5 5 6 8 7 7 6 5 5 5
7 5 3 6 10 9 6 4 3 2 2 2 2 3 3 3 3 4 3 2 0 0 2 4 4 8 11 12 11 10 10 7 4 4 6 8 8 8 7 7 6 5
9 8 7 6 5 2 0 0 2 2 1 0 1 0 1 2 3 4 4 3 3 1 2 3 4 8 8 7 7 9 7 4 3 4 6 7 6 7 6 4 5 5
11 11 10 9 7 6 7 6 3 0 0 0 1 2 1 0 3 3 4 5 4 3 1 3 5 8 8 9 9 6 7 5 4 4 4 6 7 6 7 8 6 7
9 10 10 10 7 8 8 6 6 5 2 1 2 3 4 3 4 5 4 4 5 4 4 3 4 7 8 10 8 9 5 3 3 5 5 6 7 8 8 8 8 8
10 10 10 9 9 8 7 7 6 3 2 1 5 5 5 5 5 7 6 5 5 5 5 4 5 8 12 11 9 8 7 5 5 6 5 5 6 7 6 8 10 14
8 8 8 7 8 9 7 8 6 7 5 1 1 3 5 6 6 6 9 8 7 6 8 7 6 8 12 12 12 8 6 4 6 6 6 5 6 4 2 2 3 3
7 7 7 7 7 6 7 7 6 8 8 7 9 7 6 4 3 6 7 8 8 8 7 7 7 6 8 13 12 9 8 5 5 6 6 5 4 5 5 4 0 1
Wind_Direction
135 130 135 137 147 152 150 149 150 147 138 138 123 120 117 119 108 95 96 81 86 87 83 65 51 66 82 84 84 71 67 73 76 96 98 96 90 107 112 104 99 129
137 132 133 136 139 136 140 140 143 119 120 119 120 120 118 108 108 113 105 101 102 109 86 50 76 86 86 92 89 81 65 69 75 63 79 71 76 89 99 101 100 102
132 129 134 137 139 127 122 115 105 111 116 120 117 116 116 115 118 117 113 112 105 87 98 114 96 88 91 87 85 83 86 75 68 51 72 65 54 69 82 85 74 83
127 134 135 135 130 123 114 102 101 109 113 113 121 124 124 126 127 123 124 120 117 120 107 99 105 102 100 98 100 103 111 108 110 80 66 55 70 85 82 85 87 74
142 137 123 127 121 117 111 109 117 122 122 128 122 122 118 122 123 126 120 119 122 114 107 121 120 108 102 105 112 115 104 96 92 95 95 92 85 96 98 91 86 75
136 132 129 127 124 116 113 116 126 127 130 128 135 128 130 133 128 130 136 134 131 132 134 116 110 122 122 125 124 131 126 115 117 101 97 99 90 94 102 99 97 95
129 118 121 119 114 115 117 124 125 131 137 140 130 135 143 142 141 148 145 147 141 137 144 138 129 136 140 136 136 146 144 141 133 123 126 128 99 85 91 96 90 88
82 117 117 111 111 114 123 131 133 137 144 136 139 157 153 155 156 156 150 150 147 151 153 155 150 160 144 138 156 152 154 151 148 151 148 125 108 120 101 85 93 88
314 116 118 114 112 115 127 133 135 136 143 139 148 166 162 158 161 159 162 153 148 156 151 153 166 143 141 144 157 155 153 161 164 149 136 136 129 125 118 107 85 86
335 334 87 115 116 132 135 136 129 137 142 142 159 172 158 165 158 160 153 147 153 156 159 164 143 140 145 148 154 136 140 146 144 138 143 138 129 128 124 113 115 99
69 45 356 349 127 142 144 143 141 142 145 145 155 170 160 150 160 152 148 149 155 162 160 153 151 150 148 166 165 147 138 138 143 145 146 143 143 141 136 135 134 140
103 155 171 263 64 125 161 154 154 151 161 156 156 176 158 154 160 164 154 162 164 164 159 161 157 159 165 173 174 153 147 153 161 161 148 135 149 144 141 141 144 149
98 275 324 285 307 334 268 160 158 164 169 171 176 167 163 156 173 167 174 164 170 166 162 167 168 166 170 169 171 161 161 159 165 160 133 137 142 147 150 147 145 148
119 304 330 349 0 359 322 145 137 169 175 148 177 164 169 162 179 172 185 163 180 166 177 168 169 168 172 175 176 172 168 162 166 161 143 130 133 132 141 143 126 140
123 251 262 28 55 338 353 17 23 54 68 83 60 33 212 176 173 174 180 167 192 179 174 174 170 176 171 173 181 176 174 168 162 160 147 144 144 87 58 63 68 66
129 159 157 65 56 63 23 356 346 352 67 62 54 68 49 5 292 170 176 192 190 213 174 171 175 182 177 174 170 173 170 171 157 164 158 154 124 101 106 104 133 114
132 109 49 50 85 100 131 180 331 310 2 38 57 46 23 32 39 40 195 194 192 172 168 178 172 180 182 169 153 166 168 168 164 171 168 146 120 135 144 170 176 119
71 86 89 328 102 81 32 325 13 272 298 358 29 36 16 19 22 18 357 281 224 196 156 140 144 118 124 138 132 116 148 164 167 167 167 135 142 148 171 174 189 173
150 165 185 186 147 170 187 190 199 195 73 59 21 20 31 5 340 354 340 339 237 230 173 157 160 175 142 143 139 135 124 134 159 166 157 139 155 163 169 169 189 203
48 67 101 155 169 176 175 158 123 103 106 90 35 26 17 341 327 318 322 326 309 112 138 176 186 190 180 160 156 160 163 159 144 141 132 146 155 160 160 177 188 176
23 33 36 34 21 20 20 318 169 181 99 46 106 95 319 314 309 307 289 277 267 223 142 192 238 214 211 187 169 158 161 176 164 144 142 146 158 156 154 204 193 190
13 11 9 7 23 32 44 29 359 74 298 5 356 315 262 219 293 278 277 278 272 264 177 192 237 247 246 226 205 175 153 163 174 173 163 157 166 177 172 189 193 201
10 6 359 354 9 21 14 17 27 12 317 297 322 311 307 263 223 205 211 229 255 252 240 208 211 239 234 241 229 177 166 181 182 186 184 172 176 177 179 183 192 199
354 356 355 355 360 8 360 353 1 52 74 304 295 292 286 279 290 306 299 281 256 246 232 223 218 226 225 233 237 187 180 189 195 193 197 192 181 190 185 185 192 197
352 354 358 357 355 348 351 351 351 341 339 2 169 207 239 251 248 246 261 261 247 233 226 216 206 225 226 233 241 223 193 204 191 184 195 204 181 174 165 159 189 181
355 355 354 353 344 338 342 339 335 338 337 334 327 326 306 279 230 230 239 246 242 236 234 208 203 218 223 230 239 237 209 210 207 192 201 201 161 154 163 192 135 43